Location: Castelbiague
(43.0361°N, 0.9246°E)
Time: 08:23:29
(UTC+00:00)

USA 215 - Pass Details

Date: 26 October 2021
Orbit: 1099 x 1109 km, 123.0° (Epoch: 20 November)

Event Time Altitude Azimuth Distance (km) Brightness Sun altitude
Exits shadow 19:27:04 22° 25° (NNE) 2,213 4.7 -28.1°
Maximum altitude 19:30:01 31° 345° (NNW) 1,832 4.6 -28.6°
Drops below altitude 10° 19:35:34 10° 286° (WNW) 2,964 6.4 -29.6°
Sets 19:38:20 0° 277° (W) 3,922 7.3 -30.1°
